Torna al catalogo

STARLINK-30386

AttivoComunicazioniVLEO
NORAD 57816·PAYLOAD·🇺🇸 United States

Lanciato Sep 9, 2023 da Cape Canaveral Space Force Station

Loading…

Prossimi Passaggi (prossime 24 ore)

TLE

AggiornatoSource: CelesTrak SupGP

Epoca: Sep 14, 2026, 21:31 UTC

1 57816C 23138J   26257.89701389  .00038836  00000+0  14068-2 0  2576
2 57816  43.0009 245.8893 0001584 261.3682  48.1712 15.27554415    13

Traccia STARLINK-30386 in tempo reale con AllMySat

Download on the App Store